Regional Weather Roundup
Issued by NWS

Home | Current Version | Previous Version | Graphics & Text | Print | Product List | Glossary On
Versions: 1 2 3 4 5 6 7 8 9 10 11 12 13 14 15 16 17 18 19 20 21 22 23 24 25 26 27
000
ASUS45 KPSR 190910
RWRAZ

ARIZONA HOURLY REGIONAL WEATHER ROUNDUP
NATIONAL WEATHER SERVICE PHOENIX AZ
200 AM MST SUN NOV 19 2017

NOTE: FAIR INDICATES FEW OR NO CLOUDS BELOW 12,000 FEET WITH NO
SIGNIFICANT WEATHER AND/OR OBSTRUCTIONS TO VISIBILITY.

AZZ001>003-036-191000-
NORTHWEST ARIZONA

CITY           SKY/WX    TMP DP  RH WIND       PRES   REMARKS
BULLHEAD CITY  CLEAR     59  10  14 N20G29    30.15S
KINGMAN        PTCLDY    30   6  36 NE5       30.21F WCI  25
$$

AZZ004>008-015-016-018-191000-
NORTH CENTRAL ARIZONA

CITY           SKY/WX    TMP DP  RH WIND       PRES   REMARKS
GRAND CANYON   PTCLDY    31   0  26 NE8       30.30F WCI  23
WILLIAMS       MOCLDY    27  -2  28 S9        30.29S WCI  17
PRESCOTT       MOCLDY    26   5  40 CALM      30.25S
FLAGSTAFF      MOCLDY    12  -1  56 CALM      30.33R
PAYSON           N/A     45   9  23 E5        30.25F
PAGE           PTCLDY    33   9  36 SE3       30.35S
$$

AZZ009>014-017-191000-
NORTHEAST ARIZONA

CITY           SKY/WX    TMP DP  RH WIND       PRES   REMARKS
WINSLOW        CLOUDY    19  -3  38 CALM      30.34F
SAINT JOHNS    CLEAR     22   3  44 CALM      30.32S
WINDOW ROCK    CLEAR     13   4  67 CALM      30.36F
SHOW LOW       PTCLDY    25   1  36 CALM      30.33F
$$

AZZ540-542>544-546-548-191000-
GREATER PHOENIX AREA

CITY           SKY/WX    TMP DP  RH WIND       PRES   REMARKS
PHOENIX        PTCLDY    57  27  31 CALM      30.06S
BUCKEYE        PTCLDY    48  16  27 W3        30.07F
LUKE AFB       PTCLDY    52  24  34 N7        30.05F
DEER VALLEY    CLEAR     54   6  14 CALM      30.07S
SCOTTSDALE     PTCLDY    52  23  32 CALM      30.08S
MESA-GATEWAY   PTCLDY    48  18  29 SE3       30.07S
$$

AZZ539-553-191000-
SOUTHWEST MARICOPA COUNTY AND PINAL COUNTY

CITY           SKY/WX    TMP DP  RH WIND       PRES   REMARKS
CASA GRANDE    NOT AVBL
$$

AZZ503-504-507>509-191000-
SOUTHEAST ARIZONA

CITY           SKY/WX    TMP DP  RH WIND       PRES   REMARKS
TUCSON         CLOUDY    53  27  36 S3        30.11F
DAVIS-MONTHAN  MOCLDY    51  25  37 SE6       30.09F
NOGALES        CLOUDY    48  29  47 CALM      30.12F
SIERRA VISTA   MOCLDY    51  25  37 CALM      30.18F
DOUGLAS        PTCLDY    50  23  34 NE6       30.18S
SAFFORD        PTCLDY    48  11  22 S7        30.20R
$$

AZZ532-191000-
SOUTHWEST ARIZONA

CITY           SKY/WX    TMP DP  RH WIND       PRES   REMARKS
YUMA           CLEAR     60  14  16 N8        30.07F
$$

CAZ041-043-047-048-061-525>527-560>570-191000-
SOUTHERN CALIFORNIA

CITY           SKY/WX    TMP DP  RH WIND       PRES   REMARKS
DOWNTOWN L.A.  CLEAR     60  26  27 NE3       30.07F
L.A. AIRPORT   CLEAR     65  26  23 VRB7      30.07F
SAN DIEGO      PTCLDY    60  58  92 NE3       30.08F FOG
BURBANK        CLEAR     57  27  31 N3        30.08F
ONTARIO        CLEAR     53  34  48 N5        30.09F
RIVERSIDE      CLEAR     58  23  26 NE6       30.09F
PALM SPRINGS   CLEAR     57  12  17 N3        30.14S
EL CENTRO NAS  CLEAR     51  23  33 W7        30.11F
IMPERIAL       CLEAR     51  29  42 W7        30.09S
BLYTHE         CLEAR     51  11  20 W3        30.12F
NEEDLES        CLEAR     55  11  17 NW10      30.16F
$$

NVZ020-UTZ003-191000-
SOUTHERN NEVADA-UTAH

CITY           SKY/WX    TMP DP  RH WIND       PRES   REMARKS
LAS VEGAS      MOCLDY    45  10  24 SW3       30.22S
SALT LAKE CITY MOCLDY    32  24  72 SE5       30.33F WCI  27
$$

NMZ009-TXZ055-191000-
NEW MEXICO-WEST TEXAS

CITY           SKY/WX    TMP DP  RH WIND       PRES   REMARKS
ALBUQUERQUE    CLOUDY    33   8  35 E3        30.36R
EL PASO        PTCLDY    46  22  38 SE3       30.30S
$$


........................KEY........................
SKY/WX - SKY CONDITION/WEATHER
TMP    - TEMPERATURE IN FAHRENHEIT
DP     - DEW POINT IN FAHRENHEIT
RH     - RELATIVE HUMIDITY IN PERCENT
WIND   - DIRECTION AND SPEED IN MILES PER HOUR (MPH)
VRB    - VARIABLE WIND DIRECTION
PRES   - MEAN SEA LEVEL PRESSURE IN INCHES OF MERCURY
         F - FALLING PRESSURE   R - RISING PRESSURE
         S - STEADY PRESSURE
VSB    - VISIBILITY IN MILES
HX     - HEAT INDEX IN FAHRENHEIT
WCI    - WIND CHILL INDEX IN FAHRENHEIT
TC     - TEMPERATURE IN CELSIUS WHICH IS ALSO KNOWN AS
         TEMPERATURE IN CENTIGRADE
AFB    - AIR FORCE BASE
         LUKE AFB IS LUKE AIR FORCE BASE
         DAVIS-MONTHAN IS DAVIS-MONTHAN AIR FORCE BASE
NAS    - NAVAL AIR STATION
         EL CENTRO NAS IS EL CENTRO NAVAL AIR STATION
N/A    - NOT AVAILABLE





USA.gov is the U.S. government's official web portal to all federal, state and local government web resources and services.